Home > Weather > Firenze > Past weeks

Flag for Italy Past Weather in Firenze, Italy — Yesterday and Last 2 Weeks

Now
57 °F

Passing clouds.


Feels Like: 57 °F
Forecast: 58 / 67 °F
Wind: 3 mph from East

Location: Florence / Peretola

Current Time: Jun 1, 2016 at 5:43:32 AM

Latest Report: Jun 1, 2016 at 4:50 AM


Visibility: N/A

Pressure: 29.98 "Hg

Humidity: 88%

Dew Point: 54 °F

Location of FirenzeLocation

Past Weather in Firenze — Graph

°F

Firenze Temperature Yesterday

Maximum temperature yesterday: 72 °F (at 11:50 AM)
Minimum temperature yesterday: 54 °F (at 3:50 AM)
Average temperature yesterday: 64 °F

High & Low Weather Summary for the Past Weeks

 TemperatureHumidityPressure
High86 °F (May 27, 3:20 PM)100% (May 17, 4:50 AM)30.12 "Hg (May 17, 4:50 AM)
Low48 °F (May 18, 4:20 AM)23% (May 22, 2:50 PM)29.74 "Hg (May 19, 2:20 PM)
Average65 °F66%29.95 "Hg
* Reported May 17 4:20 AM — Jun 1 4:20 AM, Firenze, Weather by CustomWeather, © 2016

Note: Actual official high and low records may vary slightly from our data, if they occured in-between our weather recording intervals... More about our weather records

Advertising

Firenze Weather History for the Previous 24 Hours

Scroll right to see more
 ConditionsComfort  
Time TempWeatherWind HumidityBarometerVisibility
4:20 AM
Wed, Jun 1
57 °FPassing clouds.3 mph88%29.98 "HgN/A
3:50 AM55 °FPassing clouds.3 mph88%29.98 "HgN/A
3:20 AM57 °FPassing clouds.7 mph88%29.98 "HgN/A
2:50 AM59 °FPassing clouds.6 mph82%30.01 "HgN/A
2:20 AM59 °FPassing clouds.2 mph82%30.01 "HgN/A
1:50 AM59 °FPassing clouds.2 mph82%30.01 "HgN/A
1:20 AM61 °FPassing clouds.3 mph77%30.01 "HgN/A
12:50 AM61 °FPassing clouds.3 mph77%30.01 "HgN/A
12:20 AM63 °FPassing clouds.5 mph73%30.01 "HgN/A
11:50 PM
Tue, May 31
63 °FPassing clouds.5 mph73%30.01 "HgN/A
11:20 PM63 °FPassing clouds.5 mph73%30.01 "HgN/A
10:50 PM63 °FPassing clouds.5 mph73%30.01 "HgN/A
10:20 PM63 °FPassing clouds.6 mph73%30.01 "HgN/A
9:50 PM63 °FPassing clouds.7 mph68%30.01 "HgN/A
9:20 PM63 °FPassing clouds.3 mph68%30.01 "HgN/A
8:50 PM64 °FPassing clouds.6 mph68%29.98 "HgN/A
8:20 PM66 °FPassing clouds.9 mph64%29.98 "HgN/A
7:50 PM68 °FPassing clouds.12 mph56%29.98 "HgN/A
7:20 PM68 °FPassing clouds.12 mph53%29.98 "HgN/A
6:50 PM68 °FPassing clouds.12 mph53%29.98 "HgN/A
6:20 PM70 °FPassing clouds.12 mph50%29.95 "HgN/A
5:50 PM72 °FPassing clouds.14 mph47%29.95 "HgN/A
4:50 PM72 °FScattered clouds.14 mph53%29.95 "HgN/A
4:20 PM70 °FScattered clouds.13 mph57%29.95 "HgN/A
3:50 PM72 °FScattered clouds.14 mph61%29.95 "HgN/A
3:20 PM72 °FScattered clouds.10 mph57%29.95 "HgN/A
2:50 PM72 °FScattered clouds.8 mph65%29.98 "HgN/A
2:20 PM70 °FScattered showers. Scattered clouds.10 mph64%29.98 "HgN/A
1:50 PM72 °FScattered clouds.12 mph57%29.98 "HgN/A
1:20 PM70 °FScattered clouds.15 mph60%29.98 "HgN/A
12:50 PM72 °FScattered clouds.12 mph50%29.98 "HgN/A
12:20 PM72 °FScattered clouds.10 mph53%29.98 "HgN/A
11:50 AM72 °FScattered clouds.10 mph53%29.98 "HgN/A
11:20 AM70 °FScattered clouds.9 mph57%29.98 "HgN/A
10:50 AM70 °FScattered clouds.12 mph57%29.98 "HgN/A
10:20 AM70 °FScattered clouds.9 mph57%29.98 "HgN/A
9:50 AM68 °FScattered clouds.6 mph60%29.98 "HgN/A
9:20 AM68 °FPassing clouds.3 mph60%29.98 "HgN/A
8:50 AM63 °FPartly sunny.5 mph73%29.98 "HgN/A
8:20 AM61 °FPartly sunny.5 mph77%29.98 "HgN/A
7:50 AM59 °FPartly sunny.6 mph82%29.98 "HgN/A
7:20 AM57 °FScattered clouds.6 mph88%29.98 "HgN/A
6:50 AM57 °FScattered clouds.5 mph88%29.98 "HgN/A
6:20 AM55 °FPassing clouds.5 mph88%29.95 "HgN/A
5:50 AM54 °FClear.5 mph94%29.98 "Hg10 mi
5:20 AM54 °FPassing clouds.7 mph94%29.95 "HgN/A
Weather by CustomWeather, © 2016

See weather overviewHow to use our weather pages